Time,TemperatureF,DewpointF,PressureIn,WindDirection,WindDirectionDegrees,WindSpeedMPH,WindSpeedGustMPH,Humidity,HourlyPrecipIn,Conditions,Clouds,dailyrainin,SoftwareType,DateUTC
2013-07-06 00:00:00,76.1,69.9,29.72,SSE,158,1.6,1.6,81,0.00,,,0.00,WUHU216HW,2013-07-06 04:00:00,
2013-07-06 00:01:00,76.1,69.9,29.72,SSE,158,1.6,1.6,81,0.00,,,0.00,WUHU216HW,2013-07-06 04:01:00,
2013-07-06 00:06:00,76.1,69.9,29.72,SSE,158,1.6,1.6,81,0.00,,,0.00,WUHU216HW,2013-07-06 04:06:00,
2013-07-06 00:30:00,76.0,69.8,29.72,SSE,158,1.3,1.3,81,0.00,,,0.00,WUHU216HW,2013-07-06 04:30:00,
2013-07-06 00:35:00,76.0,69.8,29.72,SSE,158,1.3,1.3,81,0.00,,,0.00,WUHU216HW,2013-07-06 04:35:00,
2013-07-06 01:00:00,75.2,69.8,29.72,SE,135,2.0,2.0,83,0.00,,,0.00,WUHU216HW,2013-07-06 05:00:00,
2013-07-06 01:05:00,75.2,69.8,29.72,SE,135,2.0,2.0,83,0.00,,,0.00,WUHU216HW,2013-07-06 05:05:00,
2013-07-06 01:30:00,75.1,69.3,29.72,SSE,158,0.7,0.7,82,0.00,,,0.00,WUHU216HW,2013-07-06 05:30:00,
2013-07-06 01:35:00,75.1,69.3,29.72,SSE,158,0.7,0.7,82,0.00,,,0.00,WUHU216HW,2013-07-06 05:35:00,
2013-07-06 02:00:00,75.2,69.1,29.71,SSE,158,1.6,1.6,81,0.00,,,0.00,WUHU216HW,2013-07-06 06:00:00,
2013-07-06 02:04:00,75.2,69.1,29.71,SSE,158,1.6,1.6,81,0.00,,,0.00,WUHU216HW,2013-07-06 06:04:00,
2013-07-06 02:30:00,74.9,68.8,29.71,SSW,203,0.4,0.4,81,0.00,,,0.00,WUHU216HW,2013-07-06 06:30:00,
2013-07-06 02:35:00,74.9,68.8,29.71,SSW,203,0.4,0.4,81,0.00,,,0.00,WUHU216HW,2013-07-06 06:35:00,
2013-07-06 03:00:00,74.3,68.9,29.72,SW,225,0.4,0.4,83,0.00,,,0.00,WUHU216HW,2013-07-06 07:00:00,
2013-07-06 03:05:00,74.3,68.9,29.72,SW,225,0.4,0.4,83,0.00,,,0.00,WUHU216HW,2013-07-06 07:05:00,
2013-07-06 03:30:00,73.8,68.3,29.72,SE,135,0.4,0.4,83,0.00,,,0.00,WUHU216HW,2013-07-06 07:30:00,
2013-07-06 03:35:00,73.8,68.3,29.72,SE,135,0.4,0.4,83,0.00,,,0.00,WUHU216HW,2013-07-06 07:35:00,
2013-07-06 04:00:00,73.1,68.0,29.72,SE,135,0.0,0.0,84,0.00,,,0.00,WUHU216HW,2013-07-06 08:00:00,
2013-07-06 04:05:00,73.1,68.0,29.72,SE,135,0.0,0.0,84,0.00,,,0.00,WUHU216HW,2013-07-06 08:05:00,
2013-07-06 04:30:00,73.3,68.1,29.71,SSW,203,0.0,0.0,84,0.00,,,0.00,WUHU216HW,2013-07-06 08:30:00,
2013-07-06 04:35:00,73.3,68.1,29.71,SSW,203,0.0,0.0,84,0.00,,,0.00,WUHU216HW,2013-07-06 08:35:00,
2013-07-06 05:00:00,73.3,68.1,29.72,WSW,248,0.4,0.4,84,0.00,,,0.00,WUHU216HW,2013-07-06 09:00:00,
2013-07-06 05:05:00,73.3,68.1,29.72,WSW,248,0.4,0.4,84,0.00,,,0.00,WUHU216HW,2013-07-06 09:05:00,
2013-07-06 05:30:00,73.1,68.0,29.73,SE,135,0.4,0.4,84,0.00,,,0.00,WUHU216HW,2013-07-06 09:30:00,
2013-07-06 05:35:00,73.1,68.0,29.73,SE,135,0.4,0.4,84,0.00,,,0.00,WUHU216HW,2013-07-06 09:35:00,
2013-07-06 06:00:00,72.2,67.1,29.73,SE,135,0.0,0.0,84,0.00,,,0.00,WUHU216HW,2013-07-06 10:00:00,
2013-07-06 06:05:00,72.2,67.1,29.73,SE,135,0.0,0.0,84,0.00,,,0.00,WUHU216HW,2013-07-06 10:05:00,
2013-07-06 06:30:00,72.0,67.2,29.75,East,90,0.0,0.0,85,0.00,,,0.00,WUHU216HW,2013-07-06 10:30:00,
2013-07-06 06:35:00,72.0,67.2,29.75,East,90,0.0,0.0,85,0.00,,,0.00,WUHU216HW,2013-07-06 10:35:00,
2013-07-06 07:00:00,72.4,67.6,29.75,East,90,0.0,0.0,85,0.00,,,0.00,WUHU216HW,2013-07-06 11:00:00,
2013-07-06 07:05:00,72.4,67.6,29.75,East,90,0.0,0.0,85,0.00,,,0.00,WUHU216HW,2013-07-06 11:05:00,
2013-07-06 07:30:00,72.9,68.9,29.75,East,90,0.4,0.4,87,0.00,,,0.00,WUHU216HW,2013-07-06 11:30:00,
2013-07-06 07:35:00,72.9,68.9,29.75,East,90,0.4,0.4,87,0.00,,,0.00,WUHU216HW,2013-07-06 11:35:00,
2013-07-06 08:00:00,75.1,70.3,29.75,SW,225,1.1,1.1,85,0.00,,,0.00,WUHU216HW,2013-07-06 12:00:00,
2013-07-06 08:05:00,75.1,70.3,29.75,SW,225,1.1,1.1,85,0.00,,,0.00,WUHU216HW,2013-07-06 12:05:00,
2013-07-06 08:30:00,77.4,71.1,29.75,WSW,248,2.2,2.2,81,0.00,,,0.00,WUHU216HW,2013-07-06 12:30:00,
2013-07-06 08:35:00,77.4,71.1,29.75,WSW,248,2.2,2.2,81,0.00,,,0.00,WUHU216HW,2013-07-06 12:35:00,
2013-07-06 09:00:00,78.8,71.4,29.75,West,270,1.1,1.1,78,0.00,,,0.00,WUHU216HW,2013-07-06 13:00:00,
2013-07-06 09:05:00,78.8,71.4,29.75,West,270,1.1,1.1,78,0.00,,,0.00,WUHU216HW,2013-07-06 13:05:00,
2013-07-06 09:31:00,80.6,71.2,29.75,South,180,0.4,0.4,73,0.00,,,0.00,WUHU216HW,2013-07-06 13:31:00,
2013-07-06 09:36:00,80.6,71.2,29.75,South,180,0.4,0.4,73,0.00,,,0.00,WUHU216HW,2013-07-06 13:36:00,
2013-07-06 10:00:00,82.4,72.5,29.75,WNW,293,0.9,0.9,72,0.00,,,0.00,WUHU216HW,2013-07-06 14:00:00,
2013-07-06 10:05:00,82.4,72.5,29.75,WNW,293,0.9,0.9,72,0.00,,,0.00,WUHU216HW,2013-07-06 14:05:00,
2013-07-06 10:31:00,82.8,72.0,29.75,SSE,158,0.9,0.9,70,0.00,,,0.00,WUHU216HW,2013-07-06 14:31:00,
2013-07-06 10:36:00,82.8,72.0,29.75,SSE,158,0.9,0.9,70,0.00,,,0.00,WUHU216HW,2013-07-06 14:36:00,
2013-07-06 11:00:00,84.8,72.2,29.74,SW,225,1.1,1.1,66,0.00,,,0.00,WUHU216HW,2013-07-06 15:00:00,
2013-07-06 11:04:00,84.8,72.2,29.74,SW,225,1.1,1.1,66,0.00,,,0.00,WUHU216HW,2013-07-06 15:04:00,
2013-07-06 11:30:00,86.2,73.1,29.73,SSW,203,0.7,0.7,65,0.00,,,0.00,WUHU216HW,2013-07-06 15:30:00,
2013-07-06 11:35:00,86.2,73.1,29.73,SSW,203,0.7,0.7,65,0.00,,,0.00,WUHU216HW,2013-07-06 15:35:00,
2013-07-06 12:00:00,87.8,72.4,29.73,WSW,248,2.5,2.5,60,0.00,,,0.00,WUHU216HW,2013-07-06 16:00:00,
2013-07-06 12:05:00,87.8,72.4,29.73,WSW,248,2.5,2.5,60,0.00,,,0.00,WUHU216HW,2013-07-06 16:05:00,
2013-07-06 12:30:00,91.1,74.2,29.73,SE,135,2.0,2.0,58,0.00,,,0.00,WUHU216HW,2013-07-06 16:30:00,
2013-07-06 12:36:00,91.1,74.2,29.73,SE,135,2.0,2.0,58,0.00,,,0.00,WUHU216HW,2013-07-06 16:36:00,
2013-07-06 13:01:00,92.9,74.8,29.71,SSE,158,3.1,3.1,56,0.00,,,0.00,WUHU216HW,2013-07-06 17:01:00,
2013-07-06 13:03:00,92.9,74.8,29.71,SSE,158,3.1,3.1,56,0.00,,,0.00,WUHU216HW,2013-07-06 17:03:00,
2013-07-06 13:08:00,92.9,74.8,29.71,SSE,158,3.1,3.1,56,0.00,,,0.00,WUHU216HW,2013-07-06 17:08:00,
2013-07-06 13:30:00,91.1,73.1,29.70,SSW,203,2.2,2.2,56,0.00,,,0.00,WUHU216HW,2013-07-06 17:30:00,
2013-07-06 13:35:00,91.1,73.1,29.70,SSW,203,2.2,2.2,56,0.00,,,0.00,WUHU216HW,2013-07-06 17:35:00,
2013-07-06 14:00:00,90.5,73.2,29.68,SE,135,2.9,2.9,57,0.00,,,0.00,WUHU216HW,2013-07-06 18:00:00,
2013-07-06 14:06:00,90.5,73.2,29.68,SE,135,2.9,2.9,57,0.00,,,0.00,WUHU216HW,2013-07-06 18:06:00,
2013-07-06 14:30:00,92.5,75.1,29.68,ESE,113,0.4,0.4,57,0.00,,,0.00,WUHU216HW,2013-07-06 18:30:00,
2013-07-06 14:35:00,92.5,75.1,29.68,ESE,113,0.4,0.4,57,0.00,,,0.00,WUHU216HW,2013-07-06 18:35:00,
2013-07-06 15:00:00,92.9,73.7,29.67,SE,135,4.9,4.9,54,0.00,,,0.00,WUHU216HW,2013-07-06 19:00:00,
2013-07-06 15:05:00,92.9,73.7,29.67,SE,135,4.9,4.9,54,0.00,,,0.00,WUHU216HW,2013-07-06 19:05:00,
2013-07-06 15:31:00,95.8,75.3,29.66,ESE,113,4.5,4.5,52,0.00,,,0.00,WUHU216HW,2013-07-06 19:31:00,
2013-07-06 16:00:00,92.5,73.4,29.65,ESE,113,2.0,2.0,54,0.00,,,0.00,WUHU216HW,2013-07-06 20:00:00,
2013-07-06 16:05:00,92.5,73.4,29.65,ESE,113,2.0,2.0,54,0.00,,,0.00,WUHU216HW,2013-07-06 20:05:00,
2013-07-06 16:30:00,90.7,72.3,29.64,SE,135,5.4,5.4,55,0.00,,,0.00,WUHU216HW,2013-07-06 20:30:00,
2013-07-06 16:33:00,90.5,72.6,29.64,SW,225,4.0,4.9,56,0.00,,,0.00,WUHU216HW,2013-07-06 20:33:00,
2013-07-06 16:35:00,90.5,72.6,29.64,SW,225,4.0,5.4,56,0.00,,,0.00,WUHU216HW,2013-07-06 20:35:00,
2013-07-06 16:40:00,90.5,72.6,29.64,SW,225,4.0,4.9,56,0.00,,,0.00,WUHU216HW,2013-07-06 20:40:00,
2013-07-06 17:01:00,90.4,74.1,29.64,SSW,203,3.4,3.4,59,0.00,,,0.00,WUHU216HW,2013-07-06 21:01:00,
2013-07-06 17:06:00,90.4,74.1,29.64,SSW,203,3.4,3.4,59,0.00,,,0.00,WUHU216HW,2013-07-06 21:06:00,
2013-07-06 17:30:00,89.3,73.6,29.63,ESE,113,4.3,4.3,60,0.00,,,0.00,WUHU216HW,2013-07-06 21:30:00,
2013-07-06 17:35:00,89.3,73.6,29.63,ESE,113,4.3,4.3,60,0.00,,,0.00,WUHU216HW,2013-07-06 21:35:00,
2013-07-06 17:59:00,90.2,73.9,29.62,SE,135,2.5,2.5,59,0.00,,,0.00,WUHU216HW,2013-07-06 21:59:00,
2013-07-06 18:00:00,90.2,73.9,29.62,SE,135,2.5,2.5,59,0.00,,,0.00,WUHU216HW,2013-07-06 22:00:00,
2013-07-06 18:05:00,90.2,73.9,29.62,SE,135,2.5,2.5,59,0.00,,,0.00,WUHU216HW,2013-07-06 22:05:00,
2013-07-06 18:30:00,88.2,72.7,29.62,SSW,203,2.9,2.9,60,0.00,,,0.00,WUHU216HW,2013-07-06 22:30:00,
2013-07-06 18:35:00,88.2,72.7,29.62,SSW,203,2.9,2.9,60,0.00,,,0.00,WUHU216HW,2013-07-06 22:35:00,
2013-07-06 19:00:00,87.1,71.6,29.62,SW,225,5.8,5.8,60,0.00,,,0.00,WUHU216HW,2013-07-06 23:00:00,
2013-07-06 19:05:00,87.1,71.6,29.62,SW,225,5.8,5.8,60,0.00,,,0.00,WUHU216HW,2013-07-06 23:05:00,
2013-07-06 19:29:00,86.0,71.5,29.62,SE,135,6.9,6.9,62,0.00,,,0.00,WUHU216HW,2013-07-06 23:29:00,
2013-07-06 19:30:00,86.0,71.5,29.62,SE,135,6.9,6.9,62,0.00,,,0.00,WUHU216HW,2013-07-06 23:30:00,
2013-07-06 19:35:00,86.0,71.5,29.62,SE,135,6.9,6.9,62,0.00,,,0.00,WUHU216HW,2013-07-06 23:35:00,
2013-07-06 20:00:00,84.6,71.1,29.62,SSE,158,4.0,4.0,64,0.00,,,0.00,WUHU216HW,2013-07-07 00:00:00,
2013-07-06 20:05:00,84.6,71.1,29.62,SSE,158,4.0,4.0,64,0.00,,,0.00,WUHU216HW,2013-07-07 00:05:00,
2013-07-06 20:29:00,83.2,71.0,29.63,SE,135,3.8,3.8,67,0.00,,,0.00,WUHU216HW,2013-07-07 00:29:00,
2013-07-06 20:30:00,83.2,71.0,29.63,SE,135,3.8,3.8,67,0.00,,,0.00,WUHU216HW,2013-07-07 00:30:00,
2013-07-06 20:35:00,83.2,71.0,29.63,SE,135,3.8,3.8,67,0.00,,,0.00,WUHU216HW,2013-07-07 00:35:00,
2013-07-06 21:00:00,81.5,70.4,29.63,SSE,158,2.9,2.9,69,0.00,,,0.00,WUHU216HW,2013-07-07 01:00:00,
2013-07-06 21:05:00,81.5,70.4,29.63,SSE,158,2.9,2.9,69,0.00,,,0.00,WUHU216HW,2013-07-07 01:05:00,
2013-07-06 21:30:00,80.3,69.7,29.64,SSE,158,2.5,2.5,70,0.00,,,0.00,WUHU216HW,2013-07-07 01:30:00,
2013-07-06 21:35:00,80.3,69.7,29.64,SSE,158,2.5,2.5,70,0.00,,,0.00,WUHU216HW,2013-07-07 01:35:00,
2013-07-06 22:01:00,79.2,68.9,29.65,SSE,158,1.6,1.6,71,0.00,,,0.00,WUHU216HW,2013-07-07 02:01:00,
2013-07-06 22:06:00,79.2,68.9,29.65,SSE,158,1.6,1.6,71,0.00,,,0.00,WUHU216HW,2013-07-07 02:06:00,
2013-07-06 22:30:00,78.3,68.1,29.66,SSE,158,0.0,0.0,71,0.00,,,0.00,WUHU216HW,2013-07-07 02:30:00,
2013-07-06 22:35:00,78.3,68.1,29.66,SSE,158,0.0,0.0,71,0.00,,,0.00,WUHU216HW,2013-07-07 02:35:00,
2013-07-06 23:00:00,77.2,68.3,29.67,SSE,158,0.0,0.0,74,0.00,,,0.00,WUHU216HW,2013-07-07 03:00:00,
2013-07-06 23:05:00,77.2,68.3,29.67,SSE,158,0.0,0.0,74,0.00,,,0.00,WUHU216HW,2013-07-07 03:05:00,
2013-07-06 23:30:00,76.3,68.2,29.66,SE,135,1.1,1.1,76,0.00,,,0.00,WUHU216HW,2013-07-07 03:30:00,
2013-07-06 23:35:00,76.3,68.2,29.66,SE,135,1.1,1.1,76,0.00,,,0.00,WUHU216HW,2013-07-07 03:35:00,
2013-07-06 23:59:00,76.1,67.7,29.66,SSE,158,0.0,0.0,75,0.00,,,0.00,WUHU216HW,2013-07-07 03:59:00,